Weather History for Syracuse, NY

Change the Weather History Date:

Thursday, January 16, 2014

  Actual Average Record
Temperature  
Mean Temperature 31 °F 23 °F  
Max Temperature 36 °F 31 °F 61 °F (1995)
Min Temperature 25 °F 15 °F -21 °F (1994)
Degree Days  
Heating Degree Days 34 42  
Month to date heating degree days 651 659  
Since 1 July heating degree days 3126 3112  
Cooling Degree Days 0 0  
Month to date cooling degree days 0 0  
Year to date cooling degree days 0 0  
Moisture  
Dew Point 19 °F    
Average Humidity 61    
Maximum Humidity 75    
Minimum Humidity 47    
Precipitation  
Precipitation T in 0.08 in 0.69 in (1991)
Month to date precipitation 1.55 1.37  
Year to date precipitation 1.55 1.37  
Snow  
Snow T in 1.10 in 8.80 in (1959)
Month to date snowfall 10.1 17.2  
Since 1 July snowfall 53.4 59.8  
Snow Depth 0.00 in    
Sea Level Pressure  
Sea Level Pressure 29.93 in    
Wind  
Wind Speed 4 mph (SSE)    
Max Wind Speed 9 mph    
Max Gust Speed 13 mph    
Visibility 10 miles    
Events      
T = Trace of Precipitation, MM = Missing Value Source: NWS Daily Summary

Daily Weather History Graph

Daily Weather History Graph

Search for Another Location

Airport:

Trip Planner

Search our weather history database for the weather conditions in past years. The results will help you decide how hot, cold, wet, or windy it might be!

Date:

Astronomy

Jan. 16, 2014 Rise Set
Actual Time 7:32 AM EST 4:56 PM EST
Civil Twilight 7:01 AM EST 5:27 PM EST
Nautical Twilight 6:26 AM EST 6:02 PM EST
Astronomical Twilight 5:52 AM EST 6:36 PM EST
Moon 5:48 PM EST (1/16) 7:22 AM EST (1/16)
Length of Visible Light 10h 26m
Length of Day
9h 23m
Full, 100% of the Moon is Illuminated
Jan 16
Full
Jan 24
Last Quarter
Jan 30
New
Feb 6
First Quarter
Feb 14
Full

Hourly Weather History & Observations

Time (EST) Temp. Windchill Dew Point Humidity Pressure Visibility Wind Dir Wind Speed Gust Speed Precip Events Conditions
12:54 AM 28.0 °F 22.8 °F 21.9 °F 78% 29.96 in 10.0 mi SW 4.6 mph - 0.00 in   Overcast
1:54 AM 28.9 °F - 21.9 °F 75% 29.96 in 10.0 mi Calm Calm - N/A   Overcast
2:54 AM 28.9 °F 23.9 °F 21.0 °F 72% 29.97 in 10.0 mi SSW 4.6 mph - N/A   Overcast
3:54 AM 28.9 °F 23.9 °F 21.9 °F 75% 29.96 in 10.0 mi West 4.6 mph - N/A   Overcast
4:54 AM 28.9 °F 22.8 °F 21.0 °F 72% 29.97 in 10.0 mi WSW 5.8 mph - N/A   Overcast
5:54 AM 28.9 °F 25.2 °F 19.9 °F 69% 29.96 in 10.0 mi SW 3.5 mph - N/A   Overcast
6:54 AM 28.0 °F 20.8 °F 19.9 °F 72% 29.95 in 10.0 mi WSW 6.9 mph - N/A   Overcast
7:54 AM 26.1 °F 19.4 °F 18.0 °F 71% 29.95 in 10.0 mi West 5.8 mph - N/A   Scattered Clouds
8:54 AM 28.0 °F - 21.0 °F 75% 29.98 in 10.0 mi Calm Calm - N/A   Overcast
9:54 AM 30.0 °F 24.1 °F 19.0 °F 64% 30.00 in 10.0 mi WSW 5.8 mph - N/A   Overcast
10:54 AM 30.9 °F 27.5 °F 18.0 °F 59% 29.98 in 10.0 mi West 3.5 mph - N/A   Mostly Cloudy
11:54 AM 34.0 °F - 18.0 °F 52% 29.94 in 10.0 mi Calm Calm - N/A   Scattered Clouds
12:54 PM 32.0 °F - 16.0 °F 52% 29.91 in 10.0 mi Calm Calm - N/A   Scattered Clouds
1:54 PM 34.0 °F 29.8 °F 16.0 °F 48% 29.89 in 10.0 mi East 4.6 mph - N/A   Scattered Clouds
2:54 PM 34.0 °F 28.8 °F 18.0 °F 52% 29.88 in 10.0 mi NE 5.8 mph - N/A   Scattered Clouds
3:54 PM 33.1 °F 26.9 °F 18.0 °F 54% 29.88 in 10.0 mi NE 6.9 mph - N/A   Scattered Clouds
4:54 PM 30.0 °F 25.2 °F 18.0 °F 61% 29.87 in 10.0 mi NE 4.6 mph - N/A   Scattered Clouds
5:54 PM 28.0 °F 21.7 °F 18.0 °F 66% 29.88 in 10.0 mi ENE 5.8 mph - N/A   Partly Cloudy
6:54 PM 26.1 °F 19.4 °F 18.0 °F 71% 29.89 in 10.0 mi East 5.8 mph - N/A   Partly Cloudy
7:54 PM 25.0 °F 17.1 °F 18.0 °F 75% 29.90 in 10.0 mi ESE 6.9 mph - N/A   Scattered Clouds
8:54 PM 27.0 °F 19.5 °F 19.9 °F 75% 29.90 in 10.0 mi ESE 6.9 mph - N/A   Mostly Cloudy
9:54 PM 27.0 °F 21.6 °F 19.0 °F 72% 29.90 in 10.0 mi ESE 4.6 mph - N/A   Overcast
10:54 PM 27.0 °F 21.6 °F 19.0 °F 72% 29.88 in 10.0 mi SE 4.6 mph - N/A   Overcast
11:54 PM 28.0 °F 22.8 °F 19.9 °F 72% 29.87 in 10.0 mi ESE 4.6 mph - N/A   Overcast